AAL1753 KATL-KCLT

Flight info

Callsign AAL1753
Flight time 0h 42m
Altitude 27000
Route PHIIL3 PHIIL CNTLR JONZE5
Aircraft A319/M-SDE3FGHIRWY/LB1

Departure

Time 2026-05-04 22:47
Airport Hartsfield Jackson Atlanta International Airport (KATL)

Arrival

Time 2026-05-04 23:30
Airport Charlotte Douglas International Airport (KCLT)
Time Latitude Longitude Altitude Speed Heading
2026-05-04 22:21 33.64377 -84.44192 1041 ft 0 kts 270°
2026-05-04 22:35 33.64377 -84.44186 1040 ft 2 kts 270°
2026-05-04 22:35 33.64375 -84.44166 1040 ft 3 kts 293°
2026-05-04 22:35 33.64363 -84.44149 1040 ft 3 kts 327°
2026-05-04 22:36 33.64346 -84.44142 1040 ft 3 kts 357°
2026-05-04 22:36 33.64340 -84.44142 1040 ft 0 kts
2026-05-04 22:38 33.64344 -84.44141 1040 ft 1 kts 20°
2026-05-04 22:38 33.64346 -84.44135 1040 ft 1 kts 87°
2026-05-04 22:38 33.64343 -84.44124 1040 ft 2 kts 138°
2026-05-04 22:39 33.64316 -84.44117 1040 ft 7 kts 179°
2026-05-04 22:39 33.64242 -84.44115 1040 ft 14 kts 179°
2026-05-04 22:39 33.64125 -84.44116 1040 ft 18 kts 179°
2026-05-04 22:39 33.63982 -84.44116 1040 ft 19 kts 181°
2026-05-04 22:40 33.63855 -84.44117 1040 ft 20 kts 180°
2026-05-04 22:40 33.63728 -84.44116 1040 ft 6 kts 178°
2026-05-04 22:40 33.63686 -84.44101 1040 ft 7 kts 138°
2026-05-04 22:40 33.63664 -84.44024 1040 ft 13 kts 86°
2026-05-04 22:41 33.63666 -84.43878 1040 ft 19 kts 90°
2026-05-04 22:41 33.63665 -84.43699 1040 ft 21 kts 91°
2026-05-04 22:41 33.63665 -84.43534 1040 ft 22 kts 89°
2026-05-04 22:41 33.63665 -84.43338 1040 ft 24 kts 90°
2026-05-04 22:42 33.63666 -84.43132 1040 ft 25 kts 90°
2026-05-04 22:42 33.63664 -84.42908 1040 ft 27 kts 90°
2026-05-04 22:42 33.63660 -84.42682 1040 ft 28 kts 95°
2026-05-04 22:42 33.63658 -84.42434 1040 ft 29 kts 91°
2026-05-04 22:43 33.63656 -84.42241 1040 ft 30 kts 91°
2026-05-04 22:43 33.63657 -84.42005 1040 ft 31 kts 92°
2026-05-04 22:43 33.63656 -84.41743 1040 ft 32 kts 92°
2026-05-04 22:43 33.63654 -84.41471 1040 ft 29 kts 89°
2026-05-04 22:44 33.63656 -84.41210 1040 ft 30 kts 89°
2026-05-04 22:44 33.63652 -84.41061 1040 ft 1 kts 109°
2026-05-04 22:44 33.63649 -84.41026 1040 ft 10 kts 92°
2026-05-04 22:44 33.63635 -84.40912 1040 ft 14 kts 153°
2026-05-04 22:45 33.63571 -84.40911 1040 ft 9 kts 181°
2026-05-04 22:45 33.63472 -84.40944 1040 ft 0 kts 269°
2026-05-04 22:45 33.63472 -84.40947 1040 ft 0 kts 269°
2026-05-04 22:47 33.63471 -84.41031 1041 ft 41 kts 269°
2026-05-04 22:47 33.63471 -84.41775 1041 ft 126 kts 269°
2026-05-04 22:47 33.63466 -84.43008 1233 ft 165 kts 268°
2026-05-04 22:47 33.63454 -84.44432 1964 ft 175 kts 268°
2026-05-04 22:48 33.63458 -84.45879 2878 ft 175 kts 269°
2026-05-04 22:48 33.63329 -84.47377 3457 ft 186 kts 253°
2026-05-04 22:48 33.62768 -84.48866 3931 ft 202 kts 241°
2026-05-04 22:48 33.61979 -84.50615 4514 ft 222 kts 242°
2026-05-04 22:49 33.61343 -84.52133 5068 ft 236 kts 244°
2026-05-04 22:49 33.60618 -84.53990 5721 ft 252 kts 245°
2026-05-04 22:49 33.60068 -84.55396 6212 ft 263 kts 244°
2026-05-04 22:49 33.58553 -84.57887 7274 ft 275 kts 215°
2026-05-04 22:50 33.56769 -84.58714 8228 ft 278 kts 187°
2026-05-04 22:50 33.54795 -84.58703 9166 ft 282 kts 177°
2026-05-04 22:50 33.52823 -84.58542 10038 ft 286 kts 177°
2026-05-04 22:50 33.50827 -84.58431 10924 ft 289 kts 180°
2026-05-04 22:51 33.48812 -84.58141 11775 ft 295 kts 166°
2026-05-04 22:51 33.47530 -84.57474 12327 ft 301 kts 149°
2026-05-04 22:51 33.46027 -84.55666 13073 ft 312 kts 123°
2026-05-04 22:51 33.45265 -84.53163 13580 ft 329 kts 98°
2026-05-04 22:52 33.45293 -84.49934 14125 ft 346 kts 85°
2026-05-04 22:52 33.45481 -84.47121 14647 ft 358 kts 85°
2026-05-04 22:52 33.45653 -84.43946 15114 ft 373 kts 87°
2026-05-04 22:52 33.45707 -84.40742 15521 ft 387 kts 90°
2026-05-04 22:53 33.45666 -84.37480 15903 ft 401 kts 91°
2026-05-04 22:53 33.45646 -84.34056 16453 ft 407 kts 85°
2026-05-04 22:53 33.46179 -84.30684 17119 ft 408 kts 73°
2026-05-04 22:53 33.47027 -84.27298 17734 ft 413 kts 70°
2026-05-04 22:54 33.47993 -84.23847 18346 ft 417 kts 69°
2026-05-04 22:54 33.48879 -84.20677 18883 ft 421 kts 70°
2026-05-04 22:54 33.49769 -84.17309 19445 ft 426 kts 71°
2026-05-04 22:54 33.50619 -84.13898 19975 ft 430 kts 71°
2026-05-04 22:55 33.51431 -84.10555 20482 ft 434 kts 71°
2026-05-04 22:55 33.52133 -84.07673 20909 ft 438 kts 71°
2026-05-04 22:55 33.52618 -84.05683 21181 ft 440 kts 71°
2026-05-04 22:55 33.53336 -84.02783 21574 ft 443 kts 71°
2026-05-04 22:56 33.54233 -83.99247 22045 ft 447 kts 70°
2026-05-04 22:56 33.55165 -83.95645 22515 ft 451 kts 70°
2026-05-04 22:56 33.56088 -83.92048 22964 ft 454 kts 71°
2026-05-04 22:56 33.57004 -83.88404 23398 ft 458 kts 71°
2026-05-04 22:57 33.57657 -83.85764 23708 ft 461 kts 71°
2026-05-04 22:57 33.58687 -83.81990 24112 ft 463 kts 65°
2026-05-04 22:57 33.59933 -83.78473 24590 ft 463 kts 63°
2026-05-04 22:57 33.61261 -83.74987 25095 ft 463 kts 62°
2026-05-04 22:58 33.62671 -83.71434 25641 ft 462 kts 61°
2026-05-04 22:58 33.64083 -83.67862 26171 ft 463 kts 62°
2026-05-04 22:58 33.65398 -83.64352 26703 ft 465 kts 65°
2026-05-04 22:58 33.66391 -83.60634 26995 ft 468 kts 71°
2026-05-04 22:59 33.67525 -83.56901 27044 ft 457 kts 61°
2026-05-04 22:59 33.68971 -83.53535 27058 ft 451 kts 57°
2026-05-04 22:59 33.70544 -83.50251 27058 ft 450 kts 55°
2026-05-04 22:59 33.72172 -83.47040 27056 ft 449 kts 54°
2026-05-04 23:00 33.73802 -83.43843 27054 ft 449 kts 54°
2026-05-04 23:00 33.75431 -83.40568 27052 ft 450 kts 55°
2026-05-04 23:00 33.76995 -83.37320 27051 ft 450 kts 56°
2026-05-04 23:00 33.78567 -83.34013 27050 ft 450 kts 56°
2026-05-04 23:01 33.80134 -83.30738 27049 ft 450 kts 56°
2026-05-04 23:01 33.81702 -83.27497 27048 ft 450 kts 55°
2026-05-04 23:01 33.83322 -83.24198 27043 ft 449 kts 54°
2026-05-04 23:01 33.85075 -83.20906 27044 ft 448 kts 52°
2026-05-04 23:02 33.86780 -83.17768 27032 ft 448 kts 52°
2026-05-04 23:02 33.88510 -83.14626 27011 ft 448 kts 52°
2026-05-04 23:02 33.90236 -83.11493 26996 ft 449 kts 52°
2026-05-04 23:02 33.91972 -83.08315 27007 ft 448 kts 52°
2026-05-04 23:03 33.93671 -83.05177 27035 ft 448 kts 52°
2026-05-04 23:03 33.95395 -83.01984 27050 ft 447 kts 52°
2026-05-04 23:03 33.97095 -82.98839 27035 ft 448 kts 52°
2026-05-04 23:03 33.98803 -82.95688 27014 ft 448 kts 52°
2026-05-04 23:04 33.99975 -82.93527 26999 ft 449 kts 52°
2026-05-04 23:04 34.01681 -82.90378 27000 ft 449 kts 52°
2026-05-04 23:04 34.03387 -82.87223 27000 ft 449 kts 52°
2026-05-04 23:04 34.05202 -82.83859 27025 ft 448 kts 52°
2026-05-04 23:05 34.06901 -82.80708 27050 ft 448 kts 52°
2026-05-04 23:05 34.08597 -82.77559 27051 ft 448 kts 52°
2026-05-04 23:05 34.10299 -82.74400 27031 ft 449 kts 52°
2026-05-04 23:05 34.12025 -82.71196 27014 ft 449 kts 52°
2026-05-04 23:06 34.13725 -82.68036 27027 ft 448 kts 52°
2026-05-04 23:06 34.15434 -82.64852 27052 ft 448 kts 52°
2026-05-04 23:06 34.17128 -82.61693 27050 ft 447 kts 52°
2026-05-04 23:06 34.18884 -82.58416 27030 ft 447 kts 52°
2026-05-04 23:07 34.20559 -82.55288 27009 ft 447 kts 52°
2026-05-04 23:07 34.22247 -82.52134 27001 ft 446 kts 52°
2026-05-04 23:07 34.23932 -82.48985 26995 ft 445 kts 52°
2026-05-04 23:07 34.25603 -82.45859 27000 ft 443 kts 52°
2026-05-04 23:08 34.27270 -82.42736 27000 ft 441 kts 52°
2026-05-04 23:08 34.28933 -82.39616 27008 ft 442 kts 52°
2026-05-04 23:08 34.30609 -82.36473 27028 ft 446 kts 52°
2026-05-04 23:08 34.32314 -82.33271 27039 ft 448 kts 52°
2026-05-04 23:09 34.33999 -82.30101 27044 ft 449 kts 52°
2026-05-04 23:09 34.35710 -82.26872 27048 ft 449 kts 52°
2026-05-04 23:09 34.37392 -82.23698 27051 ft 449 kts 52°
2026-05-04 23:09 34.39077 -82.20517 26966 ft 447 kts 52°
2026-05-04 23:10 34.40741 -82.17372 26652 ft 439 kts 52°
2026-05-04 23:10 34.42377 -82.14275 26091 ft 435 kts 52°
2026-05-04 23:10 34.44011 -82.11185 25527 ft 432 kts 52°
2026-05-04 23:10 34.45635 -82.08110 24979 ft 428 kts 52°
2026-05-04 23:11 34.47236 -82.05077 24462 ft 424 kts 52°
2026-05-04 23:11 34.48815 -82.02083 23962 ft 420 kts 52°
2026-05-04 23:11 34.50380 -81.99114 23470 ft 416 kts 52°
2026-05-04 23:11 34.51947 -81.96139 22994 ft 411 kts 53°
2026-05-04 23:12 34.53477 -81.93229 22549 ft 407 kts 53°
2026-05-04 23:12 34.54984 -81.90354 22108 ft 402 kts 53°
2026-05-04 23:12 34.56498 -81.87471 21665 ft 398 kts 53°
2026-05-04 23:12 34.57587 -81.85396 21361 ft 394 kts 53°
2026-05-04 23:13 34.59080 -81.82541 20953 ft 390 kts 53°
2026-05-04 23:13 34.60563 -81.79712 20554 ft 388 kts 53°
2026-05-04 23:13 34.62052 -81.76872 20152 ft 386 kts 53°
2026-05-04 23:13 34.63491 -81.74129 19758 ft 384 kts 53°
2026-05-04 23:14 34.64923 -81.71398 19383 ft 382 kts 53°
2026-05-04 23:14 34.66345 -81.68675 19008 ft 381 kts 54°
2026-05-04 23:14 34.67759 -81.65960 18634 ft 379 kts 54°
2026-05-04 23:14 34.69165 -81.63260 18262 ft 378 kts 54°
2026-05-04 23:15 34.70571 -81.60566 17892 ft 376 kts 54°
2026-05-04 23:15 34.71970 -81.57884 17544 ft 374 kts 54°
2026-05-04 23:15 34.73376 -81.55183 17226 ft 370 kts 54°
2026-05-04 23:15 34.74748 -81.52545 17079 ft 358 kts 53°
2026-05-04 23:16 34.76308 -81.50133 16945 ft 343 kts 44°
2026-05-04 23:16 34.77880 -81.48083 16775 ft 334 kts 41°
2026-05-04 23:16 34.79522 -81.46050 16394 ft 332 kts 41°
2026-05-04 23:16 34.81160 -81.44030 16046 ft 330 kts 41°
2026-05-04 23:17 34.82753 -81.42027 15731 ft 328 kts 42°
2026-05-04 23:17 34.84347 -81.39983 15438 ft 328 kts 43°
2026-05-04 23:17 34.85899 -81.37979 15153 ft 328 kts 43°
2026-05-04 23:17 34.87476 -81.35943 14846 ft 328 kts 43°
2026-05-04 23:18 34.89044 -81.33926 14541 ft 326 kts 43°
2026-05-04 23:18 34.90593 -81.31936 14250 ft 322 kts 43°
2026-05-04 23:18 34.92134 -81.29959 13943 ft 319 kts 43°
2026-05-04 23:18 34.93670 -81.27980 13664 ft 318 kts 43°
2026-05-04 23:19 34.95200 -81.26011 13333 ft 320 kts 43°
2026-05-04 23:19 34.96750 -81.24022 13017 ft 319 kts 43°
2026-05-04 23:19 34.98371 -81.21945 12676 ft 317 kts 43°
2026-05-04 23:19 34.99850 -81.20037 12351 ft 315 kts 43°
2026-05-04 23:20 35.00947 -81.18615 12095 ft 315 kts 43°
2026-05-04 23:20 35.02442 -81.16681 11759 ft 312 kts 43°
2026-05-04 23:20 35.03928 -81.14762 11430 ft 309 kts 43°
2026-05-04 23:20 35.05378 -81.12888 11117 ft 307 kts 43°
2026-05-04 23:21 35.06866 -81.10965 10802 ft 307 kts 44°
2026-05-04 23:21 35.08330 -81.09069 10494 ft 306 kts 44°
2026-05-04 23:21 35.09847 -81.07223 10189 ft 301 kts 36°
2026-05-04 23:21 35.11641 -81.06076 9945 ft 284 kts 11°
2026-05-04 23:22 35.13567 -81.05919 9623 ft 271 kts 352°
2026-05-04 23:22 35.15437 -81.06185 9180 ft 268 kts 349°
2026-05-04 23:22 35.17292 -81.06480 8636 ft 269 kts 351°
2026-05-04 23:22 35.19184 -81.06686 8040 ft 270 kts 354°
2026-05-04 23:23 35.21060 -81.06818 7428 ft 270 kts 355°
2026-05-04 23:23 35.22933 -81.06948 6820 ft 267 kts 354°
2026-05-04 23:23 35.24800 -81.07111 6203 ft 264 kts 353°
2026-05-04 23:23 35.26622 -81.07292 5588 ft 262 kts 353°
2026-05-04 23:24 35.28422 -81.07461 5121 ft 255 kts 354°
2026-05-04 23:24 35.30196 -81.07611 4604 ft 254 kts 354°
2026-05-04 23:24 35.31988 -81.07764 4078 ft 252 kts 354°
2026-05-04 23:24 35.33733 -81.07923 3554 ft 252 kts 354°
2026-05-04 23:25 35.35489 -81.07932 3106 ft 253 kts
2026-05-04 23:25 35.37070 -81.07110 2972 ft 242 kts 37°
2026-05-04 23:25 35.38144 -81.05605 2991 ft 232 kts 58°
2026-05-04 23:25 35.38718 -81.03784 2994 ft 230 kts 83°
2026-05-04 23:26 35.38805 -81.01849 3004 ft 222 kts 91°
2026-05-04 23:26 35.38667 -81.00022 2986 ft 212 kts 110°
2026-05-04 23:26 35.37894 -80.98530 2991 ft 208 kts 141°
2026-05-04 23:26 35.36703 -80.97505 3014 ft 206 kts 150°
2026-05-04 23:27 35.35401 -80.96804 3001 ft 203 kts 168°
2026-05-04 23:27 35.34021 -80.96444 3052 ft 201 kts 171°
2026-05-04 23:27 35.32679 -80.96175 2986 ft 188 kts 176°
2026-05-04 23:27 35.31400 -80.96057 2764 ft 179 kts 178°
2026-05-04 23:28 35.30177 -80.95961 2473 ft 170 kts 178°
2026-05-04 23:28 35.29011 -80.95857 2134 ft 165 kts 178°
2026-05-04 23:28 35.27885 -80.95761 1772 ft 162 kts 177°
2026-05-04 23:28 35.26836 -80.95669 1660 ft 143 kts 177°
2026-05-04 23:29 35.25886 -80.95587 1409 ft 131 kts 177°
2026-05-04 23:29 35.25014 -80.95497 1196 ft 121 kts 177°
2026-05-04 23:29 35.24163 -80.95423 1055 ft 125 kts 178°
2026-05-04 23:29 35.23281 -80.95355 923 ft 124 kts 178°
2026-05-04 23:30 35.22438 -80.95289 764 ft 118 kts 178°
2026-05-04 23:30 35.21760 -80.95234 762 ft 76 kts 175°
2026-05-04 23:30 35.21467 -80.95209 763 ft 26 kts 175°
2026-05-04 23:30 35.21305 -80.95170 762 ft 21 kts 139°
2026-05-04 23:31 35.21184 -80.95066 762 ft 18 kts 147°
2026-05-04 23:31 35.21161 -80.95042 762 ft 11 kts 128°